Вернуться в каталог

STARLINK-38114

АктивенСвязьVLEO
NORAD 100017·PAYLOAD·🇺🇸 United States

Запущен Jul 14, 2026 с Vandenberg Space Force Base

Loading…

Ближайшие Пролёты (ближайшие 24 часа)

TLE

СвежийSource: Space-Track

Эпоха: Sep 14, 2026, 14:20 UTC

1 A0017U 26160S   26257.59760792  .00212626  00000-0  12406-2 0  9994
2 A0017  70.0020 211.5751 0003620 268.9051  91.1734 15.77641991 11066

Отслеживайте STARLINK-38114 в реальном времени с AllMySat

Download on the App Store